Time,TemperatureF,DewpointF,PressureIn,WindDirection,WindDirectionDegrees,WindSpeedMPH,WindSpeedGustMPH,Humidity,HourlyPrecipIn,Conditions,Clouds,dailyrainin,SoftwareType,DateUTC
2013-02-03 00:02:00,40.3,17.2,29.45,North,-999,-999.0,-999.0,39,0.00,,,0.00,meteohub,2013-02-03 06:02:00,
2013-02-03 00:07:00,40.5,17.4,29.45,North,-999,-999.0,-999.0,39,0.00,,,0.00,meteohub,2013-02-03 06:07:00,
2013-02-03 00:12:00,40.8,17.8,29.45,North,-999,-999.0,-999.0,39,0.00,,,0.00,meteohub,2013-02-03 06:12:00,
2013-02-03 00:18:00,41.0,18.0,29.45,North,-999,-999.0,-999.0,39,0.00,,,0.00,meteohub,2013-02-03 06:18:00,
2013-02-03 00:23:00,41.5,18.5,29.45,North,-999,-999.0,-999.0,39,0.00,,,0.00,meteohub,2013-02-03 06:23:00,
2013-02-03 00:28:00,41.7,18.5,29.45,North,-999,-999.0,-999.0,39,0.00,,,0.00,meteohub,2013-02-03 06:28:00,
2013-02-03 00:34:00,41.7,18.5,29.45,North,-999,-999.0,-999.0,39,0.00,,,0.00,meteohub,2013-02-03 06:34:00,
2013-02-03 00:39:00,41.2,18.1,29.45,North,-999,-999.0,-999.0,39,0.00,,,0.00,meteohub,2013-02-03 06:39:00,
2013-02-03 00:44:00,41.2,18.1,29.45,North,-999,-999.0,-999.0,39,0.00,,,0.00,meteohub,2013-02-03 06:44:00,
2013-02-03 00:49:00,41.0,18.0,29.45,North,-999,-999.0,-999.0,39,0.00,,,0.00,meteohub,2013-02-03 06:49:00,
2013-02-03 00:55:00,40.6,17.6,29.45,North,-999,-999.0,-999.0,39,0.00,,,0.00,meteohub,2013-02-03 06:55:00,
2013-02-03 01:00:00,40.6,17.6,29.45,North,-999,-999.0,-999.0,39,0.00,,,0.00,meteohub,2013-02-03 07:00:00,
2013-02-03 01:05:00,40.6,17.6,29.45,North,-999,-999.0,-999.0,39,0.00,,,0.00,meteohub,2013-02-03 07:05:00,
2013-02-03 01:11:00,40.5,17.4,29.45,North,-999,-999.0,-999.0,39,0.00,,,0.00,meteohub,2013-02-03 07:11:00,
2013-02-03 01:16:00,40.3,17.2,29.45,North,-999,-999.0,-999.0,39,0.00,,,0.00,meteohub,2013-02-03 07:16:00,
2013-02-03 01:21:00,40.5,17.4,29.45,North,-999,-999.0,-999.0,39,0.00,,,0.00,meteohub,2013-02-03 07:21:00,
2013-02-03 01:27:00,40.5,17.4,29.45,North,-999,-999.0,-999.0,39,0.00,,,0.00,meteohub,2013-02-03 07:27:00,
2013-02-03 01:32:00,40.1,17.1,29.45,North,-999,-999.0,-999.0,39,0.00,,,0.00,meteohub,2013-02-03 07:32:00,
2013-02-03 01:37:00,39.9,16.9,29.45,North,-999,-999.0,-999.0,39,0.00,,,0.00,meteohub,2013-02-03 07:37:00,
2013-02-03 01:42:00,39.9,16.9,29.45,North,-999,-999.0,-999.0,39,0.00,,,0.00,meteohub,2013-02-03 07:42:00,
2013-02-03 01:47:00,39.7,16.9,29.45,North,-999,-999.0,-999.0,39,0.00,,,0.00,meteohub,2013-02-03 07:47:00,
2013-02-03 01:52:00,39.6,16.7,29.45,North,-999,-999.0,-999.0,39,0.00,,,0.00,meteohub,2013-02-03 07:52:00,
2013-02-03 01:57:00,39.2,16.3,29.45,North,-999,-999.0,-999.0,39,0.00,,,0.00,meteohub,2013-02-03 07:57:00,
2013-02-03 02:02:00,38.7,15.8,29.45,North,-999,-999.0,-999.0,39,0.00,,,0.00,meteohub,2013-02-03 08:02:00,
2013-02-03 02:07:00,38.5,15.6,29.45,North,-999,-999.0,-999.0,39,0.00,,,0.00,meteohub,2013-02-03 08:07:00,
2013-02-03 02:12:00,38.5,15.6,29.45,North,-999,-999.0,-999.0,39,0.00,,,0.00,meteohub,2013-02-03 08:12:00,
2013-02-03 02:17:00,38.7,15.8,29.45,North,-999,-999.0,-999.0,39,0.00,,,0.00,meteohub,2013-02-03 08:17:00,
2013-02-03 02:23:00,38.8,16.0,29.45,North,-999,-999.0,-999.0,39,0.00,,,0.00,meteohub,2013-02-03 08:23:00,
2013-02-03 02:28:00,38.8,16.0,29.45,North,-999,-999.0,-999.0,39,0.00,,,0.00,meteohub,2013-02-03 08:28:00,
2013-02-03 02:33:00,38.8,16.0,29.45,North,-999,-999.0,-999.0,39,0.00,,,0.00,meteohub,2013-02-03 08:33:00,
2013-02-03 02:38:00,38.8,16.0,29.45,North,-999,-999.0,-999.0,39,0.00,,,0.00,meteohub,2013-02-03 08:38:00,
2013-02-03 02:44:00,38.8,16.0,29.45,North,-999,-999.0,-999.0,39,0.00,,,0.00,meteohub,2013-02-03 08:44:00,
2013-02-03 02:49:00,38.8,16.0,29.45,North,-999,-999.0,-999.0,39,0.00,,,0.00,meteohub,2013-02-03 08:49:00,
2013-02-03 02:54:00,38.7,15.8,29.48,North,-999,-999.0,-999.0,39,0.00,,,0.00,meteohub,2013-02-03 08:54:00,
2013-02-03 03:00:00,38.7,15.8,29.48,North,-999,-999.0,-999.0,39,0.00,,,0.00,meteohub,2013-02-03 09:00:00,
2013-02-03 03:05:00,38.5,15.6,29.48,North,-999,-999.0,-999.0,39,0.00,,,0.00,meteohub,2013-02-03 09:05:00,
2013-02-03 03:10:00,38.1,15.3,29.48,North,-999,-999.0,-999.0,39,0.00,,,0.00,meteohub,2013-02-03 09:10:00,
2013-02-03 03:15:00,38.1,15.3,29.48,North,-999,-999.0,-999.0,39,0.00,,,0.00,meteohub,2013-02-03 09:15:00,
2013-02-03 03:21:00,38.1,15.3,29.48,North,-999,-999.0,-999.0,39,0.00,,,0.00,meteohub,2013-02-03 09:21:00,
2013-02-03 03:26:00,38.1,15.3,29.48,North,-999,-999.0,-999.0,39,0.00,,,0.00,meteohub,2013-02-03 09:26:00,
2013-02-03 03:31:00,37.9,15.3,29.48,North,-999,-999.0,-999.0,39,0.00,,,0.00,meteohub,2013-02-03 09:31:00,
2013-02-03 03:37:00,37.9,15.3,29.48,North,-999,-999.0,-999.0,39,0.00,,,0.00,meteohub,2013-02-03 09:37:00,
2013-02-03 03:42:00,37.8,15.1,29.48,North,-999,-999.0,-999.0,39,0.00,,,0.00,meteohub,2013-02-03 09:42:00,
2013-02-03 03:47:00,37.9,15.3,29.48,North,-999,-999.0,-999.0,39,0.00,,,0.00,meteohub,2013-02-03 09:47:00,
2013-02-03 03:52:00,38.1,15.3,29.48,North,-999,-999.0,-999.0,39,0.00,,,0.00,meteohub,2013-02-03 09:52:00,
2013-02-03 03:57:00,37.9,15.3,29.48,North,-999,-999.0,-999.0,39,0.00,,,0.00,meteohub,2013-02-03 09:57:00,
2013-02-03 04:02:00,37.8,15.1,29.48,North,-999,-999.0,-999.0,39,0.00,,,0.00,meteohub,2013-02-03 10:02:00,
2013-02-03 04:07:00,37.6,14.9,29.48,North,-999,-999.0,-999.0,39,0.00,,,0.00,meteohub,2013-02-03 10:07:00,
2013-02-03 04:12:00,37.8,15.1,29.48,North,-999,-999.0,-999.0,39,0.00,,,0.00,meteohub,2013-02-03 10:12:00,
2013-02-03 04:17:00,37.8,15.1,29.48,North,-999,-999.0,-999.0,39,0.00,,,0.00,meteohub,2013-02-03 10:17:00,
2013-02-03 04:22:00,37.6,14.9,29.48,North,-999,-999.0,-999.0,39,0.00,,,0.00,meteohub,2013-02-03 10:22:00,
2013-02-03 04:27:00,37.6,14.9,29.48,North,-999,-999.0,-999.0,39,0.00,,,0.00,meteohub,2013-02-03 10:27:00,
2013-02-03 04:32:00,37.2,15.1,29.48,North,-999,-999.0,-999.0,40,0.00,,,0.00,meteohub,2013-02-03 10:32:00,
2013-02-03 04:37:00,37.0,14.9,29.48,North,-999,-999.0,-999.0,40,0.00,,,0.00,meteohub,2013-02-03 10:37:00,
2013-02-03 04:42:00,36.9,14.7,29.48,North,-999,-999.0,-999.0,40,0.00,,,0.00,meteohub,2013-02-03 10:42:00,
2013-02-03 04:47:00,36.7,14.5,29.48,North,-999,-999.0,-999.0,40,0.00,,,0.00,meteohub,2013-02-03 10:47:00,
2013-02-03 04:52:00,36.7,14.5,29.48,North,-999,-999.0,-999.0,40,0.00,,,0.00,meteohub,2013-02-03 10:52:00,
2013-02-03 04:57:00,36.5,14.5,29.48,North,-999,-999.0,-999.0,40,0.00,,,0.00,meteohub,2013-02-03 10:57:00,
2013-02-03 05:02:00,36.3,14.4,29.48,North,-999,-999.0,-999.0,40,0.00,,,0.00,meteohub,2013-02-03 11:02:00,
2013-02-03 05:07:00,36.1,14.2,29.48,North,-999,-999.0,-999.0,40,0.00,,,0.00,meteohub,2013-02-03 11:07:00,
2013-02-03 05:12:00,36.1,14.2,29.51,North,-999,-999.0,-999.0,40,0.00,,,0.00,meteohub,2013-02-03 11:12:00,
2013-02-03 05:17:00,35.8,13.8,29.51,North,-999,-999.0,-999.0,40,0.00,,,0.00,meteohub,2013-02-03 11:17:00,
2013-02-03 05:22:00,35.6,13.6,29.51,North,-999,-999.0,-999.0,40,0.00,,,0.00,meteohub,2013-02-03 11:22:00,
2013-02-03 05:27:00,35.6,13.6,29.51,North,-999,-999.0,-999.0,40,0.00,,,0.00,meteohub,2013-02-03 11:27:00,
2013-02-03 05:32:00,35.4,13.5,29.51,North,-999,-999.0,-999.0,40,0.00,,,0.00,meteohub,2013-02-03 11:32:00,
2013-02-03 05:37:00,35.4,13.5,29.51,North,-999,-999.0,-999.0,40,0.00,,,0.00,meteohub,2013-02-03 11:37:00,
2013-02-03 05:42:00,35.4,13.5,29.51,North,-999,-999.0,-999.0,40,0.00,,,0.00,meteohub,2013-02-03 11:42:00,
2013-02-03 05:47:00,35.2,13.3,29.51,North,-999,-999.0,-999.0,40,0.00,,,0.00,meteohub,2013-02-03 11:47:00,
2013-02-03 05:52:00,35.1,13.1,29.51,North,-999,-999.0,-999.0,40,0.00,,,0.00,meteohub,2013-02-03 11:52:00,
2013-02-03 05:57:00,34.9,12.9,29.51,North,-999,-999.0,-999.0,40,0.00,,,0.00,meteohub,2013-02-03 11:57:00,
2013-02-03 06:02:00,34.9,12.9,29.51,North,-999,-999.0,-999.0,40,0.00,,,0.00,meteohub,2013-02-03 12:02:00,
2013-02-03 06:07:00,34.5,12.7,29.51,North,-999,-999.0,-999.0,40,0.00,,,0.00,meteohub,2013-02-03 12:07:00,
2013-02-03 06:12:00,34.5,12.7,29.51,North,-999,-999.0,-999.0,40,0.00,,,0.00,meteohub,2013-02-03 12:12:00,
2013-02-03 06:17:00,34.5,12.7,29.51,North,-999,-999.0,-999.0,40,0.00,,,0.00,meteohub,2013-02-03 12:17:00,
2013-02-03 06:22:00,34.3,12.6,29.51,North,-999,-999.0,-999.0,40,0.00,,,0.00,meteohub,2013-02-03 12:22:00,
2013-02-03 06:27:00,34.2,12.4,29.51,North,-999,-999.0,-999.0,40,0.00,,,0.00,meteohub,2013-02-03 12:27:00,
2013-02-03 06:32:00,34.0,12.2,29.51,North,-999,-999.0,-999.0,40,0.00,,,0.00,meteohub,2013-02-03 12:32:00,
2013-02-03 06:37:00,34.0,12.2,29.51,North,-999,-999.0,-999.0,40,0.00,,,0.00,meteohub,2013-02-03 12:37:00,
2013-02-03 06:42:00,34.0,12.2,29.51,North,-999,-999.0,-999.0,40,0.00,,,0.00,meteohub,2013-02-03 12:42:00,
2013-02-03 06:47:00,34.2,12.4,29.51,North,-999,-999.0,-999.0,40,0.00,,,0.00,meteohub,2013-02-03 12:47:00,
2013-02-03 06:52:00,33.8,12.0,29.51,North,-999,-999.0,-999.0,40,0.00,,,0.00,meteohub,2013-02-03 12:52:00,
2013-02-03 06:57:00,33.6,12.4,29.54,North,-999,-999.0,-999.0,41,0.00,,,0.00,meteohub,2013-02-03 12:57:00,
2013-02-03 07:02:00,33.4,12.2,29.54,North,-999,-999.0,-999.0,41,0.00,,,0.00,meteohub,2013-02-03 13:02:00,
2013-02-03 07:07:00,33.6,12.4,29.54,North,-999,-999.0,-999.0,41,0.00,,,0.00,meteohub,2013-02-03 13:07:00,
2013-02-03 07:13:00,33.8,12.0,29.54,North,-999,-999.0,-999.0,40,0.00,,,0.00,meteohub,2013-02-03 13:13:00,
2013-02-03 07:18:00,33.8,12.0,29.54,North,-999,-999.0,-999.0,40,0.00,,,0.00,meteohub,2013-02-03 13:18:00,
2013-02-03 07:23:00,33.6,12.4,29.54,North,-999,-999.0,-999.0,41,0.00,,,0.00,meteohub,2013-02-03 13:23:00,
2013-02-03 07:29:00,34.0,12.2,29.54,North,-999,-999.0,-999.0,40,0.00,,,0.00,meteohub,2013-02-03 13:29:00,
2013-02-03 07:34:00,34.2,12.4,29.54,North,-999,-999.0,-999.0,40,0.00,,,0.00,meteohub,2013-02-03 13:34:00,
2013-02-03 07:39:00,34.0,12.2,29.54,North,-999,-999.0,-999.0,40,0.00,,,0.00,meteohub,2013-02-03 13:39:00,
2013-02-03 07:45:00,33.8,12.0,29.54,North,-999,-999.0,-999.0,40,0.00,,,0.00,meteohub,2013-02-03 13:45:00,
2013-02-03 07:50:00,33.8,12.0,29.54,North,-999,-999.0,-999.0,40,0.00,,,0.00,meteohub,2013-02-03 13:50:00,
2013-02-03 07:56:00,34.2,12.4,29.57,North,-999,-999.0,-999.0,40,0.00,,,0.00,meteohub,2013-02-03 13:56:00,
2013-02-03 08:01:00,34.3,12.6,29.57,North,-999,-999.0,-999.0,40,0.00,,,0.00,meteohub,2013-02-03 14:01:00,
2013-02-03 08:06:00,34.3,12.6,29.57,North,-999,-999.0,-999.0,40,0.00,,,0.00,meteohub,2013-02-03 14:06:00,
2013-02-03 08:11:00,34.5,12.7,29.57,North,-999,-999.0,-999.0,40,0.00,,,0.00,meteohub,2013-02-03 14:11:00,
2013-02-03 08:17:00,34.7,12.9,29.57,North,-999,-999.0,-999.0,40,0.00,,,0.00,meteohub,2013-02-03 14:17:00,
2013-02-03 08:22:00,34.7,12.9,29.57,North,-999,-999.0,-999.0,40,0.00,,,0.00,meteohub,2013-02-03 14:22:00,
2013-02-03 08:27:00,34.9,12.9,29.57,North,-999,-999.0,-999.0,40,0.00,,,0.00,meteohub,2013-02-03 14:27:00,
2013-02-03 08:32:00,34.9,12.9,29.57,North,-999,-999.0,-999.0,40,0.00,,,0.00,meteohub,2013-02-03 14:32:00,
2013-02-03 08:37:00,35.1,13.1,29.57,North,-999,-999.0,-999.0,40,0.00,,,0.00,meteohub,2013-02-03 14:37:00,
2013-02-03 08:42:00,35.1,13.1,29.60,North,-999,-999.0,-999.0,40,0.00,,,0.00,meteohub,2013-02-03 14:42:00,
2013-02-03 08:47:00,35.1,13.1,29.60,North,-999,-999.0,-999.0,40,0.00,,,0.00,meteohub,2013-02-03 14:47:00,
2013-02-03 08:52:00,35.1,13.1,29.60,North,-999,-999.0,-999.0,40,0.00,,,0.00,meteohub,2013-02-03 14:52:00,
2013-02-03 08:57:00,35.1,13.1,29.60,North,-999,-999.0,-999.0,40,0.00,,,0.00,meteohub,2013-02-03 14:57:00,
2013-02-03 09:02:00,35.1,13.1,29.60,North,-999,-999.0,-999.0,40,0.00,,,0.00,meteohub,2013-02-03 15:02:00,
2013-02-03 09:07:00,35.2,13.3,29.60,North,-999,-999.0,-999.0,40,0.00,,,0.00,meteohub,2013-02-03 15:07:00,
2013-02-03 09:13:00,35.2,13.3,29.60,North,-999,-999.0,-999.0,40,0.00,,,0.00,meteohub,2013-02-03 15:13:00,
2013-02-03 09:18:00,35.2,13.3,29.60,North,-999,-999.0,-999.0,40,0.00,,,0.00,meteohub,2013-02-03 15:18:00,
2013-02-03 09:23:00,35.2,13.3,29.60,North,-999,-999.0,-999.0,40,0.00,,,0.00,meteohub,2013-02-03 15:23:00,
2013-02-03 09:29:00,35.1,13.1,29.60,North,-999,-999.0,-999.0,40,0.00,,,0.00,meteohub,2013-02-03 15:29:00,
2013-02-03 09:34:00,34.9,12.9,29.60,North,-999,-999.0,-999.0,40,0.00,,,0.00,meteohub,2013-02-03 15:34:00,
2013-02-03 09:39:00,35.1,13.1,29.60,North,-999,-999.0,-999.0,40,0.00,,,0.00,meteohub,2013-02-03 15:39:00,
2013-02-03 09:45:00,35.1,13.1,29.60,North,-999,-999.0,-999.0,40,0.00,,,0.00,meteohub,2013-02-03 15:45:00,
2013-02-03 09:50:00,35.1,13.1,29.60,North,-999,-999.0,-999.0,40,0.00,,,0.00,meteohub,2013-02-03 15:50:00,
2013-02-03 09:55:00,35.4,13.5,29.60,North,-999,-999.0,-999.0,40,0.00,,,0.00,meteohub,2013-02-03 15:55:00,
2013-02-03 10:00:00,35.6,13.6,29.60,North,-999,-999.0,-999.0,40,0.00,,,0.00,meteohub,2013-02-03 16:00:00,
2013-02-03 10:06:00,35.6,13.6,29.60,North,-999,-999.0,-999.0,40,0.00,,,0.00,meteohub,2013-02-03 16:06:00,
2013-02-03 10:11:00,36.0,14.0,29.60,North,-999,-999.0,-999.0,40,0.00,,,0.00,meteohub,2013-02-03 16:11:00,
2013-02-03 10:16:00,35.8,13.8,29.60,North,-999,-999.0,-999.0,40,0.00,,,0.00,meteohub,2013-02-03 16:16:00,
2013-02-03 10:21:00,35.8,13.8,29.60,North,-999,-999.0,-999.0,40,0.00,,,0.00,meteohub,2013-02-03 16:21:00,
2013-02-03 10:27:00,36.1,14.2,29.60,North,-999,-999.0,-999.0,40,0.00,,,0.00,meteohub,2013-02-03 16:27:00,
2013-02-03 10:32:00,36.3,14.4,29.60,North,-999,-999.0,-999.0,40,0.00,,,0.00,meteohub,2013-02-03 16:32:00,
2013-02-03 10:37:00,36.9,14.7,29.60,North,-999,-999.0,-999.0,40,0.00,,,0.00,meteohub,2013-02-03 16:37:00,
2013-02-03 10:42:00,36.7,14.5,29.60,North,-999,-999.0,-999.0,40,0.00,,,0.00,meteohub,2013-02-03 16:42:00,
2013-02-03 10:47:00,36.7,14.5,29.60,North,-999,-999.0,-999.0,40,0.00,,,0.00,meteohub,2013-02-03 16:47:00,
2013-02-03 10:53:00,37.4,14.7,29.60,North,-999,-999.0,-999.0,39,0.00,,,0.00,meteohub,2013-02-03 16:53:00,
2013-02-03 10:58:00,37.0,14.9,29.57,North,-999,-999.0,-999.0,40,0.00,,,0.00,meteohub,2013-02-03 16:58:00,
2013-02-03 11:03:00,37.0,14.9,29.57,North,-999,-999.0,-999.0,40,0.00,,,0.00,meteohub,2013-02-03 17:03:00,
2013-02-03 11:09:00,36.9,14.7,29.57,North,-999,-999.0,-999.0,40,0.00,,,0.00,meteohub,2013-02-03 17:09:00,
2013-02-03 11:14:00,37.0,14.9,29.60,North,-999,-999.0,-999.0,40,0.00,,,0.00,meteohub,2013-02-03 17:14:00,
2013-02-03 11:19:00,37.4,14.7,29.60,North,-999,-999.0,-999.0,39,0.00,,,0.00,meteohub,2013-02-03 17:19:00,
2013-02-03 11:24:00,37.4,14.7,29.60,North,-999,-999.0,-999.0,39,0.00,,,0.00,meteohub,2013-02-03 17:24:00,
2013-02-03 11:30:00,37.8,15.1,29.60,North,-999,-999.0,-999.0,39,0.00,,,0.00,meteohub,2013-02-03 17:30:00,
2013-02-03 11:35:00,37.9,15.3,29.60,North,-999,-999.0,-999.0,39,0.00,,,0.00,meteohub,2013-02-03 17:35:00,
2013-02-03 11:40:00,37.8,15.1,29.57,North,-999,-999.0,-999.0,39,0.00,,,0.00,meteohub,2013-02-03 17:40:00,
2013-02-03 11:45:00,38.3,15.4,29.57,North,-999,-999.0,-999.0,39,0.00,,,0.00,meteohub,2013-02-03 17:45:00,
2013-02-03 11:51:00,38.3,15.4,29.57,North,-999,-999.0,-999.0,39,0.00,,,0.00,meteohub,2013-02-03 17:51:00,
2013-02-03 11:56:00,38.1,15.3,29.54,North,-999,-999.0,-999.0,39,0.00,,,0.00,meteohub,2013-02-03 17:56:00,
2013-02-03 12:01:00,38.3,15.4,29.54,North,-999,-999.0,-999.0,39,0.00,,,0.00,meteohub,2013-02-03 18:01:00,
2013-02-03 12:07:00,38.3,15.4,29.54,North,-999,-999.0,-999.0,39,0.00,,,0.00,meteohub,2013-02-03 18:07:00,
2013-02-03 12:12:00,38.7,15.8,29.57,North,-999,-999.0,-999.0,39,0.00,,,0.00,meteohub,2013-02-03 18:12:00,
2013-02-03 12:17:00,38.8,16.0,29.57,North,-999,-999.0,-999.0,39,0.00,,,0.00,meteohub,2013-02-03 18:17:00,
2013-02-03 12:22:00,38.7,15.8,29.57,North,-999,-999.0,-999.0,39,0.00,,,0.00,meteohub,2013-02-03 18:22:00,
2013-02-03 12:27:00,38.8,16.0,29.54,North,-999,-999.0,-999.0,39,0.00,,,0.00,meteohub,2013-02-03 18:27:00,
2013-02-03 12:33:00,38.8,16.0,29.54,North,-999,-999.0,-999.0,39,0.00,,,0.00,meteohub,2013-02-03 18:33:00,
2013-02-03 12:38:00,39.6,16.7,29.54,North,-999,-999.0,-999.0,39,0.00,,,0.00,meteohub,2013-02-03 18:38:00,
2013-02-03 12:44:00,39.4,16.5,29.54,North,-999,-999.0,-999.0,39,0.00,,,0.00,meteohub,2013-02-03 18:44:00,
2013-02-03 12:49:00,39.4,16.5,29.54,North,-999,-999.0,-999.0,39,0.00,,,0.00,meteohub,2013-02-03 18:49:00,
2013-02-03 12:54:00,40.6,17.6,29.54,North,-999,-999.0,-999.0,39,0.00,,,0.00,meteohub,2013-02-03 18:54:00,
2013-02-03 12:59:00,40.3,17.2,29.54,North,-999,-999.0,-999.0,39,0.00,,,0.00,meteohub,2013-02-03 18:59:00,
2013-02-03 13:04:00,39.9,16.9,29.54,North,-999,-999.0,-999.0,39,0.00,,,0.00,meteohub,2013-02-03 19:04:00,
2013-02-03 13:10:00,40.3,17.2,29.51,North,-999,-999.0,-999.0,39,0.00,,,0.00,meteohub,2013-02-03 19:10:00,
2013-02-03 13:15:00,40.6,17.6,29.51,North,-999,-999.0,-999.0,39,0.00,,,0.00,meteohub,2013-02-03 19:15:00,
2013-02-03 13:20:00,40.8,17.8,29.51,North,-999,-999.0,-999.0,39,0.00,,,0.00,meteohub,2013-02-03 19:20:00,
2013-02-03 13:26:00,40.8,17.8,29.51,North,-999,-999.0,-999.0,39,0.00,,,0.00,meteohub,2013-02-03 19:26:00,
2013-02-03 13:31:00,41.2,18.1,29.51,North,-999,-999.0,-999.0,39,0.00,,,0.00,meteohub,2013-02-03 19:31:00,
2013-02-03 13:36:00,41.7,18.5,29.51,North,-999,-999.0,-999.0,39,0.00,,,0.00,meteohub,2013-02-03 19:36:00,
2013-02-03 13:42:00,41.7,18.5,29.48,North,-999,-999.0,-999.0,39,0.00,,,0.00,meteohub,2013-02-03 19:42:00,
2013-02-03 13:47:00,41.9,18.7,29.48,North,-999,-999.0,-999.0,39,0.00,,,0.00,meteohub,2013-02-03 19:47:00,
2013-02-03 13:52:00,42.4,19.2,29.48,North,-999,-999.0,-999.0,39,0.00,,,0.00,meteohub,2013-02-03 19:52:00,
2013-02-03 13:57:00,43.0,19.0,29.45,North,-999,-999.0,-999.0,38,0.00,,,0.00,meteohub,2013-02-03 19:57:00,
2013-02-03 14:02:00,43.2,19.2,29.45,North,-999,-999.0,-999.0,38,0.00,,,0.00,meteohub,2013-02-03 20:02:00,
2013-02-03 14:07:00,43.3,19.4,29.45,North,-999,-999.0,-999.0,38,0.00,,,0.00,meteohub,2013-02-03 20:07:00,
2013-02-03 14:12:00,43.7,19.8,29.45,North,-999,-999.0,-999.0,38,0.00,,,0.00,meteohub,2013-02-03 20:12:00,
2013-02-03 14:17:00,44.4,20.5,29.45,North,-999,-999.0,-999.0,38,0.00,,,0.00,meteohub,2013-02-03 20:17:00,
2013-02-03 14:23:00,44.6,20.5,29.45,North,-999,-999.0,-999.0,38,0.00,,,0.00,meteohub,2013-02-03 20:23:00,
2013-02-03 14:28:00,44.8,20.7,29.45,North,-999,-999.0,-999.0,38,0.00,,,0.00,meteohub,2013-02-03 20:28:00,
2013-02-03 14:33:00,45.5,21.4,29.45,North,-999,-999.0,-999.0,38,0.00,,,0.00,meteohub,2013-02-03 20:33:00,
2013-02-03 14:39:00,45.5,21.4,29.45,North,-999,-999.0,-999.0,38,0.00,,,0.00,meteohub,2013-02-03 20:39:00,
2013-02-03 14:44:00,45.3,21.2,29.45,North,-999,-999.0,-999.0,38,0.00,,,0.00,meteohub,2013-02-03 20:44:00,
2013-02-03 14:49:00,45.3,21.2,29.45,North,-999,-999.0,-999.0,38,0.00,,,0.00,meteohub,2013-02-03 20:49:00,
2013-02-03 14:55:00,45.1,21.0,29.45,North,-999,-999.0,-999.0,38,0.00,,,0.00,meteohub,2013-02-03 20:55:00,
2013-02-03 15:00:00,45.3,21.2,29.45,North,-999,-999.0,-999.0,38,0.00,,,0.00,meteohub,2013-02-03 21:00:00,
2013-02-03 15:05:00,45.5,21.4,29.45,North,-999,-999.0,-999.0,38,0.00,,,0.00,meteohub,2013-02-03 21:05:00,
2013-02-03 15:11:00,46.0,21.9,29.45,North,-999,-999.0,-999.0,38,0.00,,,0.00,meteohub,2013-02-03 21:11:00,
2013-02-03 15:16:00,46.2,21.9,29.45,North,-999,-999.0,-999.0,38,0.00,,,0.00,meteohub,2013-02-03 21:16:00,
2013-02-03 15:21:00,46.6,21.7,29.45,North,-999,-999.0,-999.0,37,0.00,,,0.00,meteohub,2013-02-03 21:21:00,
2013-02-03 15:26:00,46.6,21.7,29.45,North,-999,-999.0,-999.0,37,0.00,,,0.00,meteohub,2013-02-03 21:26:00,
2013-02-03 15:32:00,46.2,21.9,29.45,North,-999,-999.0,-999.0,38,0.00,,,0.00,meteohub,2013-02-03 21:32:00,
2013-02-03 15:37:00,46.6,21.7,29.45,North,-999,-999.0,-999.0,37,0.00,,,0.00,meteohub,2013-02-03 21:37:00,
2013-02-03 15:42:00,46.2,21.9,29.42,North,-999,-999.0,-999.0,38,0.00,,,0.00,meteohub,2013-02-03 21:42:00,
2013-02-03 15:47:00,46.6,21.7,29.42,North,-999,-999.0,-999.0,37,0.00,,,0.00,meteohub,2013-02-03 21:47:00,
2013-02-03 15:52:00,46.9,22.1,29.42,North,-999,-999.0,-999.0,37,0.00,,,0.00,meteohub,2013-02-03 21:52:00,
2013-02-03 15:57:00,47.1,22.1,29.42,North,-999,-999.0,-999.0,37,0.00,,,0.00,meteohub,2013-02-03 21:57:00,
2013-02-03 16:02:00,47.3,22.3,29.42,North,-999,-999.0,-999.0,37,0.00,,,0.00,meteohub,2013-02-03 22:02:00,
2013-02-03 16:07:00,47.1,22.1,29.42,North,-999,-999.0,-999.0,37,0.00,,,0.00,meteohub,2013-02-03 22:07:00,
2013-02-03 16:12:00,47.3,22.3,29.39,North,-999,-999.0,-999.0,37,0.00,,,0.00,meteohub,2013-02-03 22:12:00,
2013-02-03 16:17:00,47.3,22.3,29.39,North,-999,-999.0,-999.0,37,0.00,,,0.00,meteohub,2013-02-03 22:17:00,
2013-02-03 16:22:00,47.3,22.3,29.39,North,-999,-999.0,-999.0,37,0.00,,,0.00,meteohub,2013-02-03 22:22:00,
2013-02-03 16:27:00,47.3,22.3,29.39,North,-999,-999.0,-999.0,37,0.00,,,0.00,meteohub,2013-02-03 22:27:00,
2013-02-03 16:32:00,46.9,22.1,29.39,North,-999,-999.0,-999.0,37,0.00,,,0.00,meteohub,2013-02-03 22:32:00,
2013-02-03 16:38:00,46.6,21.7,29.39,North,-999,-999.0,-999.0,37,0.00,,,0.00,meteohub,2013-02-03 22:38:00,
2013-02-03 16:43:00,46.2,21.9,29.39,North,-999,-999.0,-999.0,38,0.00,,,0.00,meteohub,2013-02-03 22:43:00,
2013-02-03 16:48:00,46.2,21.9,29.39,North,-999,-999.0,-999.0,38,0.00,,,0.00,meteohub,2013-02-03 22:48:00,
2013-02-03 16:54:00,46.0,21.9,29.39,North,-999,-999.0,-999.0,38,0.00,,,0.00,meteohub,2013-02-03 22:54:00,
2013-02-03 16:59:00,45.9,21.7,29.39,North,-999,-999.0,-999.0,38,0.00,,,0.00,meteohub,2013-02-03 22:59:00,
2013-02-03 17:04:00,45.5,21.4,29.39,North,-999,-999.0,-999.0,38,0.00,,,0.00,meteohub,2013-02-03 23:04:00,
2013-02-03 17:09:00,45.0,20.8,29.36,North,-999,-999.0,-999.0,38,0.00,,,0.00,meteohub,2013-02-03 23:09:00,
2013-02-03 17:15:00,44.2,20.3,29.36,North,-999,-999.0,-999.0,38,0.00,,,0.00,meteohub,2013-02-03 23:15:00,
2013-02-03 17:20:00,43.9,19.9,29.36,North,-999,-999.0,-999.0,38,0.00,,,0.00,meteohub,2013-02-03 23:20:00,
2013-02-03 17:25:00,43.3,19.4,29.36,North,-999,-999.0,-999.0,38,0.00,,,0.00,meteohub,2013-02-03 23:25:00,
2013-02-03 17:30:00,42.8,18.9,29.36,North,-999,-999.0,-999.0,38,0.00,,,0.00,meteohub,2013-02-03 23:30:00,
2013-02-03 17:36:00,42.4,19.2,29.36,North,-999,-999.0,-999.0,39,0.00,,,0.00,meteohub,2013-02-03 23:36:00,
2013-02-03 17:41:00,41.9,18.7,29.36,North,-999,-999.0,-999.0,39,0.00,,,0.00,meteohub,2013-02-03 23:41:00,
2013-02-03 17:46:00,41.5,18.5,29.36,North,-999,-999.0,-999.0,39,0.00,,,0.00,meteohub,2013-02-03 23:46:00,
2013-02-03 17:51:00,41.2,18.1,29.36,North,-999,-999.0,-999.0,39,0.00,,,0.00,meteohub,2013-02-03 23:51:00,
2013-02-03 17:57:00,40.6,17.6,29.36,North,-999,-999.0,-999.0,39,0.00,,,0.00,meteohub,2013-02-03 23:57:00,
2013-02-03 18:02:00,40.3,17.2,29.36,North,-999,-999.0,-999.0,39,0.00,,,0.00,meteohub,2013-02-04 00:02:00,
2013-02-03 18:07:00,40.1,17.1,29.36,North,-999,-999.0,-999.0,39,0.00,,,0.00,meteohub,2013-02-04 00:07:00,
2013-02-03 18:12:00,39.7,16.9,29.36,North,-999,-999.0,-999.0,39,0.00,,,0.00,meteohub,2013-02-04 00:12:00,
2013-02-03 18:17:00,39.2,16.3,29.36,North,-999,-999.0,-999.0,39,0.00,,,0.00,meteohub,2013-02-04 00:17:00,
2013-02-03 18:22:00,38.8,16.0,29.36,North,-999,-999.0,-999.0,39,0.00,,,0.00,meteohub,2013-02-04 00:22:00,
2013-02-03 18:27:00,38.7,15.8,29.36,North,-999,-999.0,-999.0,39,0.00,,,0.00,meteohub,2013-02-04 00:27:00,
2013-02-03 18:32:00,38.3,15.4,29.36,North,-999,-999.0,-999.0,39,0.00,,,0.00,meteohub,2013-02-04 00:32:00,
2013-02-03 18:37:00,37.9,15.3,29.36,North,-999,-999.0,-999.0,39,0.00,,,0.00,meteohub,2013-02-04 00:37:00,
2013-02-03 18:42:00,37.6,14.9,29.36,North,-999,-999.0,-999.0,39,0.00,,,0.00,meteohub,2013-02-04 00:42:00,
2013-02-03 18:47:00,37.2,15.1,29.36,North,-999,-999.0,-999.0,40,0.00,,,0.00,meteohub,2013-02-04 00:47:00,
2013-02-03 18:52:00,37.0,14.9,29.36,North,-999,-999.0,-999.0,40,0.00,,,0.00,meteohub,2013-02-04 00:52:00,
2013-02-03 18:57:00,37.0,14.9,29.34,North,-999,-999.0,-999.0,40,0.00,,,0.00,meteohub,2013-02-04 00:57:00,
2013-02-03 19:02:00,37.0,14.9,29.34,North,-999,-999.0,-999.0,40,0.00,,,0.00,meteohub,2013-02-04 01:02:00,
2013-02-03 19:07:00,37.0,14.9,29.34,North,-999,-999.0,-999.0,40,0.00,,,0.00,meteohub,2013-02-04 01:07:00,
2013-02-03 19:12:00,36.9,14.7,29.36,North,-999,-999.0,-999.0,40,0.00,,,0.00,meteohub,2013-02-04 01:12:00,
2013-02-03 19:17:00,36.7,14.5,29.36,North,-999,-999.0,-999.0,40,0.00,,,0.00,meteohub,2013-02-04 01:17:00,
2013-02-03 19:22:00,36.7,14.5,29.36,North,-999,-999.0,-999.0,40,0.00,,,0.00,meteohub,2013-02-04 01:22:00,
2013-02-03 19:27:00,36.5,14.5,29.34,North,-999,-999.0,-999.0,40,0.00,,,0.00,meteohub,2013-02-04 01:27:00,
2013-02-03 19:32:00,36.3,14.4,29.34,North,-999,-999.0,-999.0,40,0.00,,,0.00,meteohub,2013-02-04 01:32:00,
2013-02-03 19:37:00,36.5,14.5,29.34,North,-999,-999.0,-999.0,40,0.00,,,0.00,meteohub,2013-02-04 01:37:00,
2013-02-03 19:42:00,36.5,14.5,29.34,North,-999,-999.0,-999.0,40,0.00,,,0.00,meteohub,2013-02-04 01:42:00,
2013-02-03 19:47:00,36.7,14.5,29.34,North,-999,-999.0,-999.0,40,0.00,,,0.00,meteohub,2013-02-04 01:47:00,
2013-02-03 19:52:00,36.9,14.7,29.34,North,-999,-999.0,-999.0,40,0.00,,,0.00,meteohub,2013-02-04 01:52:00,
2013-02-03 19:57:00,36.9,14.7,29.34,North,-999,-999.0,-999.0,40,0.00,,,0.00,meteohub,2013-02-04 01:57:00,
2013-02-03 20:02:00,37.0,14.9,29.34,North,-999,-999.0,-999.0,40,0.00,,,0.00,meteohub,2013-02-04 02:02:00,
2013-02-03 20:07:00,37.2,15.1,29.34,North,-999,-999.0,-999.0,40,0.00,,,0.00,meteohub,2013-02-04 02:07:00,
2013-02-03 20:12:00,37.4,14.7,29.31,North,-999,-999.0,-999.0,39,0.00,,,0.00,meteohub,2013-02-04 02:12:00,
2013-02-03 20:17:00,37.6,14.9,29.31,North,-999,-999.0,-999.0,39,0.00,,,0.00,meteohub,2013-02-04 02:17:00,
2013-02-03 20:22:00,37.6,14.9,29.31,North,-999,-999.0,-999.0,39,0.00,,,0.00,meteohub,2013-02-04 02:22:00,
2013-02-03 20:27:00,37.9,15.3,29.31,North,-999,-999.0,-999.0,39,0.00,,,0.00,meteohub,2013-02-04 02:27:00,
2013-02-03 20:33:00,37.9,15.3,29.31,North,-999,-999.0,-999.0,39,0.00,,,0.00,meteohub,2013-02-04 02:33:00,
2013-02-03 20:38:00,37.8,15.1,29.31,North,-999,-999.0,-999.0,39,0.00,,,0.00,meteohub,2013-02-04 02:38:00,
2013-02-03 20:43:00,37.6,14.9,29.31,North,-999,-999.0,-999.0,39,0.00,,,0.00,meteohub,2013-02-04 02:43:00,
2013-02-03 20:49:00,37.8,15.1,29.31,North,-999,-999.0,-999.0,39,0.00,,,0.00,meteohub,2013-02-04 02:49:00,
2013-02-03 20:54:00,37.9,15.3,29.31,North,-999,-999.0,-999.0,39,0.00,,,0.00,meteohub,2013-02-04 02:54:00,
2013-02-03 20:59:00,37.9,15.3,29.31,North,-999,-999.0,-999.0,39,0.00,,,0.00,meteohub,2013-02-04 02:59:00,
2013-02-03 21:05:00,37.9,15.3,29.31,North,-999,-999.0,-999.0,39,0.00,,,0.00,meteohub,2013-02-04 03:05:00,
2013-02-03 21:10:00,38.1,15.3,29.31,North,-999,-999.0,-999.0,39,0.00,,,0.00,meteohub,2013-02-04 03:10:00,
2013-02-03 21:15:00,37.9,15.3,29.31,North,-999,-999.0,-999.0,39,0.00,,,0.00,meteohub,2013-02-04 03:15:00,
2013-02-03 21:21:00,37.8,15.1,29.31,North,-999,-999.0,-999.0,39,0.00,,,0.00,meteohub,2013-02-04 03:21:00,
2013-02-03 21:26:00,37.8,15.1,29.28,North,-999,-999.0,-999.0,39,0.00,,,0.00,meteohub,2013-02-04 03:26:00,
2013-02-03 21:31:00,37.9,15.3,29.28,North,-999,-999.0,-999.0,39,0.00,,,0.00,meteohub,2013-02-04 03:31:00,
2013-02-03 21:36:00,38.1,15.3,29.28,North,-999,-999.0,-999.0,39,0.00,,,0.00,meteohub,2013-02-04 03:36:00,
2013-02-03 21:42:00,38.1,15.3,29.28,North,-999,-999.0,-999.0,39,0.00,,,0.00,meteohub,2013-02-04 03:42:00,
2013-02-03 21:47:00,38.1,15.3,29.28,North,-999,-999.0,-999.0,39,0.00,,,0.00,meteohub,2013-02-04 03:47:00,
2013-02-03 21:52:00,38.3,15.4,29.28,North,-999,-999.0,-999.0,39,0.00,,,0.00,meteohub,2013-02-04 03:52:00,
2013-02-03 21:57:00,38.5,15.6,29.28,North,-999,-999.0,-999.0,39,0.00,,,0.00,meteohub,2013-02-04 03:57:00,
2013-02-03 22:02:00,38.7,15.8,29.28,North,-999,-999.0,-999.0,39,0.00,,,0.00,meteohub,2013-02-04 04:02:00,
2013-02-03 22:07:00,38.7,15.8,29.28,North,-999,-999.0,-999.0,39,0.00,,,0.00,meteohub,2013-02-04 04:07:00,
2013-02-03 22:12:00,38.7,15.8,29.28,North,-999,-999.0,-999.0,39,0.00,,,0.00,meteohub,2013-02-04 04:12:00,
2013-02-03 22:17:00,38.7,15.8,29.28,North,-999,-999.0,-999.0,39,0.00,,,0.00,meteohub,2013-02-04 04:17:00,
2013-02-03 22:22:00,38.7,15.8,29.28,North,-999,-999.0,-999.0,39,0.00,,,0.00,meteohub,2013-02-04 04:22:00,
2013-02-03 22:27:00,38.7,15.8,29.25,North,-999,-999.0,-999.0,39,0.00,,,0.00,meteohub,2013-02-04 04:27:00,
2013-02-03 22:32:00,38.8,16.0,29.25,North,-999,-999.0,-999.0,39,0.00,,,0.00,meteohub,2013-02-04 04:32:00,
2013-02-03 22:38:00,39.0,16.2,29.25,North,-999,-999.0,-999.0,39,0.00,,,0.00,meteohub,2013-02-04 04:38:00,
2013-02-03 22:43:00,39.2,16.3,29.25,North,-999,-999.0,-999.0,39,0.00,,,0.00,meteohub,2013-02-04 04:43:00,
2013-02-03 22:48:00,39.2,16.3,29.25,North,-999,-999.0,-999.0,39,0.00,,,0.00,meteohub,2013-02-04 04:48:00,
2013-02-03 22:53:00,39.0,16.2,29.25,North,-999,-999.0,-999.0,39,0.00,,,0.00,meteohub,2013-02-04 04:53:00,
2013-02-03 22:59:00,39.0,16.2,29.25,North,-999,-999.0,-999.0,39,0.00,,,0.00,meteohub,2013-02-04 04:59:00,
2013-02-03 23:00:00,38.8,16.0,29.25,North,-999,-999.0,-999.0,39,0.00,,,0.00,meteohub,2013-02-04 05:00:00,
2013-02-03 23:02:00,38.8,16.0,29.25,North,-999,-999.0,-999.0,39,0.00,,,0.00,meteohub,2013-02-04 05:02:00,
2013-02-03 23:08:00,38.8,16.0,29.25,North,-999,-999.0,-999.0,39,0.00,,,0.00,meteohub,2013-02-04 05:08:00,
2013-02-03 23:13:00,38.7,15.8,29.25,North,-999,-999.0,-999.0,39,0.00,,,0.00,meteohub,2013-02-04 05:13:00,
2013-02-03 23:18:00,38.7,15.8,29.25,North,-999,-999.0,-999.0,39,0.00,,,0.00,meteohub,2013-02-04 05:18:00,
2013-02-03 23:24:00,38.7,15.8,29.25,North,-999,-999.0,-999.0,39,0.00,,,0.00,meteohub,2013-02-04 05:24:00,
2013-02-03 23:29:00,38.7,15.8,29.25,North,-999,-999.0,-999.0,39,0.00,,,0.00,meteohub,2013-02-04 05:29:00,
2013-02-03 23:34:00,38.8,16.0,29.25,North,-999,-999.0,-999.0,39,0.00,,,0.00,meteohub,2013-02-04 05:34:00,
2013-02-03 23:39:00,38.7,15.8,29.25,North,-999,-999.0,-999.0,39,0.00,,,0.00,meteohub,2013-02-04 05:39:00,
2013-02-03 23:45:00,38.8,16.0,29.25,North,-999,-999.0,-999.0,39,0.00,,,0.00,meteohub,2013-02-04 05:45:00,
2013-02-03 23:50:00,38.5,15.6,29.25,North,-999,-999.0,-999.0,39,0.00,,,0.00,meteohub,2013-02-04 05:50:00,
2013-02-03 23:55:00,38.5,15.6,29.22,North,-999,-999.0,-999.0,39,0.00,,,0.00,meteohub,2013-02-04 05:55:00,